Flag for Canada Weather past 2 weeks in Fort Simpson, Northwest Territories, Canada

Now
84 °F

Partly sunny.


Feels Like: 81 °F
Forecast: 62 / 76 °F
Wind: 18 mph from Northwest

Location: Fort Simpson

Current Time: May 24, 2015 at 8:12:13 PM

Latest Report: May 24, 2015 at 7:00 PM


Visibility: 15 mi

Pressure: 29.79 "Hg

Humidity: 20%

Dew point: 39 °F

Location of Fort SimpsonLocation

Historic Weather in Fort Simpson — Graph

°F

Fort Simpson temperature yesterday

Maximum temperature yesterday: 82 °F (at 4:00 PM)
Minimum temperature yesterday: 54 °F (at 5:00 AM)
Average temperature yesterday: 69 °F

Past Weeks' High & Low Weather Summary

 TemperatureHumidityPressure
High86 °F (May 24, 6:00 PM)87% (May 15, 4:00 AM)30.47 "Hg (May 15, 4:00 AM)
Low30 °F (May 16, 6:00 AM)9% (May 19, 6:00 PM)29.65 "Hg (May 14, 5:00 PM)
Average64 °F38%30.04 "Hg
* Reported May 9 7:00 PM — May 24 7:00 PM, Fort Simpson, Weather by CustomWeather, © 2015

Note: Actual official high and low records may vary slightly from our data, if they occured in-between our weather recording intervals... More about our weather records

Advertising

Fort Simpson weather history for previous 24 hours

 ConditionsComfort  
Time TempWeatherWind HumidityBarometerVisibility
7:00 PM
Sun, May 24
84 °FPartly sunny.18 mph20%29.79 "Hg15 mi
6:00 PM86 °FScattered clouds.8 mph22%29.79 "Hg15 mi
5:00 PM84 °FPartly sunny.9 mph22%29.81 "Hg15 mi
4:00 PM84 °FPartly sunny.6 mph22%29.83 "Hg15 mi
3:00 PM84 °FPartly sunny.6 mph25%29.85 "Hg15 mi
2:00 PM84 °FPartly sunny.9 mph27%29.87 "Hg15 mi
1:00 PM82 °FPartly sunny.5 mph28%29.89 "Hg15 mi
12:00 PM77 °FPartly sunny.3 mph36%29.91 "Hg15 mi
11:00 AM75 °FPartly sunny.5 mph39%29.93 "Hg15 mi
10:00 AM70 °FPartly sunny.2 mph50%29.94 "Hg15 mi
9:00 AM64 °FScattered clouds.2 mph56%29.95 "Hg15 mi
8:00 AM61 °FPartly sunny.No wind59%29.96 "Hg15 mi
7:00 AM54 °FPartly sunny.No wind72%29.97 "Hg15 mi
6:00 AM50 °FScattered clouds.2 mph76%29.98 "Hg15 mi
5:00 AM50 °FPassing clouds.No wind71%29.98 "Hg15 mi
4:00 AM50 °FPassing clouds.2 mph76%29.98 "Hg15 mi
3:00 AM52 °FPassing clouds.No wind72%29.98 "Hg15 mi
2:00 AM55 °FPassing clouds.No wind63%29.99 "Hg15 mi
1:00 AM59 °FPassing clouds.No wind59%29.99 "Hg15 mi
12:00 AM63 °FScattered clouds.No wind59%29.99 "Hg15 mi
11:00 PM
Sat, May 23
68 °FScattered clouds.2 mph46%29.99 "Hg15 mi
10:00 PM75 °FScattered clouds.5 mph34%29.99 "Hg15 mi
9:00 PM79 °FScattered clouds.6 mph30%30.00 "Hg15 mi
8:00 PM82 °FScattered clouds.3 mph23%30.00 "Hg15 mi
Weather by CustomWeather, © 2015

See weather overviewHow to use our weather pages